Home > Weather > Sandnessjøen > Past weeks

Flag for Norway Past Weather in Sandnessjøen, Norway — Yesterday and Last 2 Weeks

Now
54 °F

Broken clouds.


Feels Like: 51 °F
Forecast: 49 / 57 °F
Wind: 8 mph from Southwest

Location: Sandnessjoen / Stokka

Current Time: Jun 28, 2016 at 1:28:05 PM

Latest Report: Jun 28, 2016 at 12:50 PM


Visibility: N/A

Pressure: 29.83 "Hg

Humidity: 88%

Dew Point: 50 °F

Location of SandnessjøenLocation

Past Weather in Sandnessjøen — Graph

°F

Sandnessjøen Temperature Yesterday

Maximum temperature yesterday: 73 °F (at 11:20 AM)
Minimum temperature yesterday: 54 °F (at 9:50 PM)
Average temperature yesterday: 65 °F

High & Low Weather Summary for the Past Weeks

 TemperatureHumidityPressure
High75 °F (Jun 26, 10:20 PM)100% (Jun 24, 7:50 AM)30.09 "Hg (Jun 24, 7:50 AM)
Low43 °F (Jun 14, 4:50 AM)36% (Jun 27, 4:50 AM)29.56 "Hg (Jun 27, 2:50 PM)
Average54 °F76%29.84 "Hg
* Reported Jun 13 11:20 AM — Jun 28 11:50 AM, Sandnessjøen, Weather by CustomWeather, © 2016

Note: Actual official high and low records may vary slightly from our data, if they occured in-between our weather recording intervals... More about our weather records

Advertising

Sandnessjøen Weather History for the Previous 24 Hours

Scroll right to see more
 ConditionsComfort  
Time TempWeatherWind HumidityBarometerVisibility
11:50 AM
Tue, Jun 28
52 °FDrizzle. Broken clouds.7 mph100%29.83 "HgN/A
11:20 AM52 °FDrizzle. Broken clouds.9 mph94%29.83 "HgN/A
10:50 AM54 °FBroken clouds.8 mph88%29.80 "HgN/A
10:20 AM54 °FBroken clouds.8 mph88%29.80 "HgN/A
9:50 AM54 °FBroken clouds.7 mph88%29.80 "HgN/A
9:20 AM54 °FBroken clouds.8 mph88%29.80 "HgN/A
8:50 AM54 °FBroken clouds.8 mph88%29.77 "HgN/A
8:20 AM54 °FBroken clouds.8 mph88%29.77 "HgN/A
7:50 AM54 °FBroken clouds.10 mph88%29.77 "HgN/A
7:20 AM54 °FBroken clouds.8 mph88%29.74 "HgN/A
6:50 AM52 °FPartly sunny.5 mph94%29.74 "HgN/A
6:20 AM52 °FPartly sunny.5 mph94%29.74 "HgN/A
5:50 AM52 °FBroken clouds.3 mph94%29.74 "HgN/A
5:20 AM52 °FBroken clouds.6 mph94%29.74 "HgN/A
4:50 AM52 °FBroken clouds.10 mph94%29.74 "HgN/A
10:50 PM
Mon, Jun 27
54 °FLight rain. Broken clouds.13 mph94%29.65 "Hg6 mi
10:20 PM54 °FLight rain. Broken clouds.13 mph94%29.65 "Hg5 mi
9:50 PM54 °FLight rain. Partly sunny.14 mph94%29.65 "HgN/A
9:20 PM55 °FLight rain. Broken clouds.16 mph94%29.62 "HgN/A
8:50 PM55 °FScattered showers. Broken clouds.16 mph94%29.62 "HgN/A
8:20 PM55 °FScattered showers. Broken clouds.15 mph94%29.62 "HgN/A
7:50 PM57 °FScattered showers. Broken clouds.14 mph88%29.62 "HgN/A
7:20 PM57 °FScattered clouds.16 mph88%29.59 "HgN/A
6:50 PM57 °FBroken clouds.15 mph88%29.59 "HgN/A
6:20 PM61 °FBroken clouds.14 mph83%29.59 "HgN/A
5:50 PM61 °FBroken clouds.14 mph83%29.59 "HgN/A
5:20 PM64 °FScattered showers. Broken clouds.9 mph64%29.59 "HgN/A
4:50 PM64 °FScattered showers. Partly sunny.8 mph64%29.59 "HgN/A
4:20 PM63 °FScattered showers. Partly sunny.10 mph68%29.59 "HgN/A
3:50 PM63 °FScattered showers. Partly sunny.8 mph68%29.59 "HgN/A
3:20 PM63 °FScattered showers. Partly sunny.9 mph68%29.56 "HgN/A
2:50 PM63 °FPartly sunny.16 mph68%29.56 "HgN/A
2:20 PM64 °FPartly sunny.8 mph64%29.59 "HgN/A
1:50 PM64 °FScattered showers. Broken clouds.13 mph64%29.59 "HgN/A
1:20 PM63 °FLight rain. Broken clouds.14 mph73%29.59 "HgN/A
Weather by CustomWeather, © 2016

See weather overviewHow to use our weather pages